Location: Sedan
(39.2354°N, 78.5718°W)
Time: 20:50:29
(UTC+00:00)

ISS - Pass Details

Date: 03 December 2021
Orbit: 413 x 422 km, 51.6° (Epoch: 25 January)

Event Time Altitude Azimuth Distance (km) Brightness Sun altitude
Rises 22:12:21 0° 314° (NW) 2,386 0.4 -4.5°
Reaches altitude 10° 22:15:28 10° 345° (NNW) 1,516 -1.0 -5.0°
Maximum altitude 22:17:02 13° 13° (NNE) 1,367 -1.5 -5.3°
Drops below altitude 10° 22:18:35 10° 40° (NE) 1,512 -1.5 -5.6°
Enters shadow 22:19:39 - 54° (NE) 1,750 -1.3 -5.8°
